Location: Campestrin
(46.4667°N, 11.7167°E)
Time: 10:18:57
(UTC+00:00)

SL-16 R/B - Pass Details

Date: 18 April 2021
Orbit: 840 x 849 km, 71.0° (Epoch: 06 May)

Event Time Altitude Azimuth Distance (km) Brightness Sun altitude
Rises 22:12:57 0° 324° (NW) 3,422 6.4 -30.9°
Reaches altitude 10° 22:15:42 10° 314° (NW) 2,480 5.3 -31.0°
Enters shadow 22:19:45 28° 270° (W) 1,546 3.6 -31.2°
